2014 MY17

Initial reported observation by Catalina Sky Survey on 2014-06-24.
(Discoverer will be defined when the object is numbered. See this note on how discoverers are determined.)

Orbit

Orbit type: Apollo
Near-Earth Object
One opposition object seen prior.

Note: WebGL enabled browser required.

epoch2019-04-27.0
epoch JD2458600.5
perihelion date2018-11-01.78617
perihelion JD2458424.28617
argument of perihelion (°)208.28890
ascending node (°)112.92862
inclination (°)3.05081
eccentricity0.6390493
perihelion distance (AU)0.9498575
Tisserand w.r.t. Jupiter3.1
ΔV w.r.t. Earth (km/sec)6.7
semimajor axis (AU)2.6315440
mean anomaly (°)40.68440
mean daily motion (°/day)0.23088080
aphelion distance (AU)4.313
period (years)4.27
P-vector [x]0.77891090
P-vector [y]-0.56488624
P-vector [z]-0.27239925
Q-vector [x]0.62521612
Q-vector [y]0.73340015
Q-vector [z]0.26688766
absolute magnitude22.2
phase slope0.15
uncertainty7
referenceMPO 298942
observations used54
oppositions1
arc length (days)8
first opposition used2014
last opposition used2014
residual rms (arc-secs)0.40
perturbers coarse indicatorM-v
perturbers precise indicator003Eh
first observation date used2014-06-24.0
last observation date used2014-07-02.0
computer nameMPCALB
JD of orbit computation2456840.974179
perihelion JD uncertainty (days)2.2877E-02
argument of perihelion uncertainty (°)1.3601E-02
ascending node uncertainty (°)1.5483E-02
inclination uncertainty (°)4.7071E-03
eccentricity uncertainty 1.6792E-03
perihelion distance uncertainty (AU)6.7507E-05
Minimum Orbit Intersection Distances (in AU)
for orbit epoch: 2458600.5, reference: MPO298942
Mercury0.53359
Venus0.22297
Earth0.00502
Mars0.06841
Jupiter1.03176
Saturn4.91914
Uranus14.0313
Neptune25.9361

Observations

54 total observations over interval: 2014 06 24.40431 – 2014 07 02.45797
These data are available for download (format description).

Date (UT) J2000 RA J2000 Dec Magn Location Ref
2014 06 24.40431 22 16 13.09 -00 19 49.2 19.5 V 703 – Catalina Sky Survey MPS 520116
2014 06 24.41163 22 16 21.62 -00 19 14.1 19.6 V 703 – Catalina Sky Survey MPS 520116
2014 06 24.42242 22 16 33.97 -00 18 24.8 19.1 V 703 – Catalina Sky Survey MPS 520116
2014 06 24.42976 22 16 42.37 -00 17 50.7 19.3 V 703 – Catalina Sky Survey MPS 520116
2014 06 24.46068 22 17 17.88 -00 15 26.0 18.6 V 703 – Catalina Sky Survey MPS 520116
2014 06 24.46141 22 17 18.79 -00 15 21.9 19.0 V 703 – Catalina Sky Survey MPS 520116
2014 06 24.46215 22 17 19.62 -00 15 18.5 18.6 V 703 – Catalina Sky Survey MPS 520116
2014 06 25.04625 22 28 57.45 +00 30 16.9 18.2 V 958 – Observatoire de Dax MPS 520116
2014 06 25.05244 22 29 04.84 +00 30 45.8 19.6 V 958 – Observatoire de Dax MPS 520116
2014 06 25.05861 22 29 12.10 +00 31 15.7 19.3 V 958 – Observatoire de Dax MPS 520116
2014 06 25.38757 22 35 46.33 +00 57 26.9 19.6 V I52 – Steward Observatory, Mt. Lemmon Station MPS 520116
2014 06 25.38787 22 35 46.75 +00 57 28.5 19.1 V I52 – Steward Observatory, Mt. Lemmon Station MPS 520116
2014 06 25.38816 22 35 47.07 +00 57 29.9 19.0 V I52 – Steward Observatory, Mt. Lemmon Station MPS 520116
2014 06 25.39335 22 35 53.17 +00 57 54.2 18.8 V I52 – Steward Observatory, Mt. Lemmon Station MPS 520116
2014 06 25.39354 22 35 53.35 +00 57 55.2 19.2 V I52 – Steward Observatory, Mt. Lemmon Station MPS 520116
2014 06 25.39373 22 35 53.59 +00 57 56.2 19.2 V I52 – Steward Observatory, Mt. Lemmon Station MPS 520116
2014 06 25.39391 22 35 53.79 +00 57 57.0 19.2 V I52 – Steward Observatory, Mt. Lemmon Station MPS 520116
2014 06 25.39691 22 35 57.42 +00 58 12.2 18.6 R 291 – LPL/Spacewatch II MPS 520116
2014 06 25.39745 22 35 58.06 +00 58 15.0 19.1 R 291 – LPL/Spacewatch II MPS 520116
2014 06 25.39799 22 35 58.69 +00 58 17.4 19.3 R 291 – LPL/Spacewatch II MPS 520116
2014 06 25.42976 22 36 35.82 +01 00 46.9 19.5 V I52 – Steward Observatory, Mt. Lemmon Station MPS 520116
2014 06 25.42994 22 36 36.03 +01 00 47.8 19.3 V I52 – Steward Observatory, Mt. Lemmon Station MPS 520116
2014 06 25.43013 22 36 36.22 +01 00 48.5 19.7 V I52 – Steward Observatory, Mt. Lemmon Station MPS 520116
2014 06 25.43031 22 36 36.41 +01 00 49.6 19.6 V I52 – Steward Observatory, Mt. Lemmon Station MPS 520116
2014 06 25.43959 22 36 47.29 +01 01 33.5 18.9 V I52 – Steward Observatory, Mt. Lemmon Station MPS 520116
2014 06 25.43978 22 36 47.53 +01 01 34.3 19.0 V I52 – Steward Observatory, Mt. Lemmon Station MPS 520116
2014 06 25.43997 22 36 47.70 +01 01 34.9 19.1 V I52 – Steward Observatory, Mt. Lemmon Station MPS 520116
2014 06 25.44015 22 36 47.97 +01 01 36.2 19.2 V I52 – Steward Observatory, Mt. Lemmon Station MPS 520116
2014 06 25.45446 22 37 04.67 +01 02 43.7 20.3 V I52 – Steward Observatory, Mt. Lemmon Station MPS 520116
2014 06 25.45464 22 37 04.91 +01 02 45.1 20.1 V I52 – Steward Observatory, Mt. Lemmon Station MPS 520116
2014 06 25.45482 22 37 05.16 +01 02 45.7 19.6 V I52 – Steward Observatory, Mt. Lemmon Station MPS 520116
2014 06 25.45501 22 37 05.31 +01 02 46.5 19.6 V I52 – Steward Observatory, Mt. Lemmon Station MPS 520116
2014 06 26.40814 22 56 14.60 +02 17 42.2 19.7 R 291 – LPL/Spacewatch II MPS 520116
2014 06 26.40849 22 56 14.98 +02 17 43.7 19.7 R 291 – LPL/Spacewatch II MPS 520116
2014 06 26.40884 22 56 15.40 +02 17 45.4 19.0 R 291 – LPL/Spacewatch II MPS 520116
2014 06 26.41250 22 56 19.62 +02 18 01.5 18.6 V G96 – Mt. Lemmon Survey MPS 520116
2014 06 26.42115 22 56 29.76 +02 18 42.1 18.7 V G96 – Mt. Lemmon Survey MPS 520116
2014 06 26.42593 22 56 35.39 +02 19 04.7 18.8 V G96 – Mt. Lemmon Survey MPS 520116
2014 06 26.43073 22 56 41.06 +02 19 27.4 19.0 V G96 – Mt. Lemmon Survey MPS 520116
2014 06 27.334392 23 14 44.35 +03 28 46.5 19.8 V H21 – Astronomical Research Observatory, Westfield MPS 520116
2014 06 27.338152 23 14 48.72 +03 29 03.7 19.4 V H21 – Astronomical Research Observatory, Westfield MPS 520116
2014 06 27.342494 23 14 53.77 +03 29 23.4 19.8 V H21 – Astronomical Research Observatory, Westfield MPS 520116
2014 06 28.42511 23 36 05.61 +04 49 08.1 19.4 V 703 – Catalina Sky Survey MPS 520116
2014 06 28.43712 23 36 19.13 +04 49 59.6 19.5 V 703 – Catalina Sky Survey MPS 520116
2014 06 28.44313 23 36 25.87 +04 50 25.6 19.4 V 703 – Catalina Sky Survey MPS 520116
2014 06 28.44875 23 36 32.20 +04 50 49.7 19.6 V 703 – Catalina Sky Survey MPS 520116
2014 06 28.45076 23 36 34.57 +04 50 58.7 19.8 V 703 – Catalina Sky Survey MPS 520116
2014 06 28.45278 23 36 36.78 +04 51 07.3 19.3 V 703 – Catalina Sky Survey MPS 520116
2014 06 28.45478 23 36 39.03 +04 51 15.6 19.7 V 703 – Catalina Sky Survey MPS 520116
2014 07 01.609719 00 33 14.808 +08 07 45.10 20.1 R 568 – Maunakea MPS 521457
2014 07 01.610230 00 33 15.297 +08 07 46.73 20.9 R 568 – Maunakea MPS 521457
2014 07 02.45625 00 46 45.21 +08 49 51.1 18.9 R 291 – LPL/Spacewatch II MPS 521457
2014 07 02.45711 00 46 46.04 +08 49 53.3 19.8 R 291 – LPL/Spacewatch II MPS 521457
2014 07 02.45797 00 46 46.77 +08 49 55.8 19.0 R 291 – LPL/Spacewatch II MPS 521457